Simultaneous Nadir Overpasses (SNOs) Predictions

Prediction of SNOs between AQUA and METOP-B Satellite Orbit:

Table of predicted SNOs for the next 14.0 days since TLE Epoch: 6/6/2020
Index Date (AQUA) Time (AQUA) Lat,Lon (AQUA) SZA (AQUA ) Date (METOP-B) Time (METOP-B) Lat,Lon (METOP-B) SZA (METOP-B ) Distance(km) Time Diff (sec)
1 06/08/2020 07:28:53 -73.81,-117.92 129.09 06/08/2020 07:28:13 -73.80,-117.88 129.09 1.72 40
2 06/08/2020 08:18:21 73.86, 49.61 50.97 06/08/2020 08:18:51 73.87, 49.61 50.97 0.53 30
3 06/11/2020 03:03:08 -73.80, -51.45 129.32 06/11/2020 03:02:35 -73.78, -51.53 129.33 3.24 33
4 06/11/2020 03:52:36 73.85, 116.07 50.75 06/11/2020 03:53:13 73.84, 115.96 50.73 3.70 37
5 06/13/2020 22:37:22 -73.78, 15.02 129.49 06/13/2020 22:36:55 -73.80, 14.94 129.46 3.02 27
6 06/13/2020 23:26:50 73.85,-177.48 50.58 06/13/2020 23:27:33 73.86,-177.58 50.60 3.51 43
7 06/16/2020 18:11:38 -73.83, 81.35 129.54 06/16/2020 18:11:16 -73.82, 81.40 129.54 1.74 22
8 06/16/2020 19:01:06 73.90,-111.16 50.54 06/16/2020 19:01:54 73.88,-111.13 50.51 2.22 48
9 06/19/2020 12:56:15 73.23, -18.56 49.77 06/19/2020 12:55:08 73.17, -21.01 49.82 78.82 67
10 06/19/2020 13:45:53 -73.83, 147.79 129.59 06/19/2020 13:45:37 -73.84, 147.85 129.57 2.36 16
11 06/19/2020 14:35:21 73.90, -44.73 50.49 06/19/2020 14:36:15 73.90, -44.68 50.48 1.59 54




NCC Satellite Simultaneous Nadir Overpasses (SNOs) Prediction Service
